Location: Bonningues
(50.7927°N, 2.0150°E)
Time: 21:27:17
(UTC+00:00)

OPS 6432 - Pass Details

Date: 08 August 2020
Orbit: 369 x 1718 km, 63.3° (Epoch: 14 September)

Event Time Altitude Azimuth Distance (km) Brightness Sun altitude
Rises 21:33:13 0° 221° (SW) 2,955 8.4 -16.3°
Reaches altitude 10° 21:35:48 10° 222° (SW) 1,859 7.4 -16.5°
Maximum altitude 21:39:48 87° 139° (SE) 468 4.3 -16.9°
Drops below altitude 10° 21:42:57 10° 44° (NE) 1,472 7.1 -17.2°
Sets 21:44:48 0° 45° (NE) 2,274 8.1 -17.3°
